カタログに戻る

COSMOS 338

運用中軍事LEO
NORAD 4385·PAYLOAD·🇷🇺 Russia

打ち上げ Apr 25, 1970 から Plesetsk Cosmodrome

Loading…

次のパス (今後24時間)

TLE

最新Source: Space-Track

元期: Sep 14, 2026, 07:18 UTC

1 04385U 70036C   26257.30436999 -.00000018  00000-0 -15141-4 0  9998
2 04385  74.0258  93.4526 0032369 290.2464 243.0822 12.43375105559064

AllMySatでCOSMOS 338をリアルタイム追跡

Download on the App Store